Regional Weather Roundup
Issued by NWS

Home | Current Version | Previous Version | Graphics & Text | Print | Product List | Glossary On
Versions: 1 2 3 4 5 6 7 8 9 10 11 12 13 14 15 16 17 18 19 20 21 22 23 24 25 26 27 28 29 30 31 32 33 34 35 36 37 38 39 40 41 42 43 44 45 46 47 48 49 50
000
ASUS43 KFSD 191310
RWRSD

WEATHER ROUNDUP FOR SOUTH DAKOTA
NATIONAL WEATHER SERVICE SIOUX FALLS SD
700 AM CST FRI DEC 19 2014

NOTE: "FAIR" INDICATES FEW OR NO CLOUDS BELOW 12,000 FEET WITH NO
SIGNIFICANT WEATHER AND/OR OBSTRUCTIONS TO VISIBILITY.


SDZ001>005-009-010-012>017-191400-
NORTHWEST AND NORTH CENTRAL SOUTH DAKOTA

CITY           SKY/WX    TMP DP  RH WIND       PRES   REMARKS
BUFFALO          N/A     27  19  72 W9        29.88R WCI  18
FAITH            N/A     28  23  81 SW9       29.95S WCI  19
MOBRIDGE       MOCLDY    20  18  92 SE9       29.96F WCI   9
$$

SDZ012>016-024>037-041>051-057-063-072>074-191400-
SOUTHWEST AND SOUTH CENTRAL SOUTH DAKOTA

CITY           SKY/WX    TMP DP  RH WIND       PRES   REMARKS
RAPID CTY ARPT PTCLDY    26  16  65 W3        29.98R
PIERRE         FOG       13  10  88 CALM      30.01F VSB 1/4
CUSTER         CLEAR     23  13  65 NW6       29.96R WCI  16
ELLSWORTH AFB  PTCLDY    23  16  75 W6        29.96S WCI  15
PHILIP         PTCLDY    22  18  85 W7        30.00S WCI  13
PINE RIDGE     PTCLDY    20  13  74 SW7       30.02R WCI  11
SPEARFISH      FAIR      28  18  64 CALM      29.97S
WINNER         FAIR      20  14  77 SW5       30.03S WCI  13
$$

SDZ004>011-016>023-039-040-191400-
NORTHEAST SOUTH DAKOTA

CITY           SKY/WX    TMP DP  RH WIND       PRES   REMARKS
ABERDEEN       CLOUDY    27  25  92 S13       30.06F WCI  16
WATERTOWN      CLOUDY    26  24  92 S15       30.07S FOG     WCI  14
SISSETON         N/A     26  25  96 S8        30.10S WCI  18
$$

SDZ017-020-022-023-036>040-048>070-191400-
SOUTHEAST SOUTH DAKOTA

CITY           SKY/WX    TMP DP  RH WIND       PRES   REMARKS
SIOUX FALLS    CLOUDY    29  25  85 S12       30.14F WCI  19
HURON          CLOUDY    28  25  88 S10       30.09S WCI  19
CHAMBERLAIN    CLEAR     14  12  92 SE3       30.05S
MITCHELL       CLOUDY    29  26  89 S14       30.11S FOG     WCI  18
YANKTON        CLOUDY    30  25  80 S13       30.15F WCI  20
$$

ABBREVIATIONS USED IN REMARKS
   TC - TEMPERATURE IN CELSIUS
  WCI - WIND CHILL INDEX
   HX - HEAT INDEX
  VSB - VISIBILITY




USA.gov is the U.S. government's official web portal to all federal, state and local government web resources and services.